IUS DEB, 26076

Orbit data source: Space-Track

IUS DEB, 26076 is space debris originally from a launch on Fri, 23 Jul 1999 UTC launched from the Air Force Eastern Test Range (AFETR). Debris objects in space refer to the collection of defunct objects orbiting the Earth. Examples of debris include non-operational satellites, rocket bodies, and fragments generated from explosions, collisions, or faulty payload assembly.

Loading next visibility...
Identifier
26076, 1999-040E
Orbit
Active
Last TLE update
3 weeks ago
Origin
Manufacturer
Boeing/Kent
Mission
Spacecraft
Bus & Motor
Unknown
Mass
Unknown
Launch date (UTC)
1999-07-23 (26 years ago)
Launch vehicle
Unknown
Launch site
Air Force Eastern Test Range (AFETR)
Object type
Payload
Rocket body
Debris
Shape & HBR
Unknown
Radar Cross Section
Small (<0.1 m²)

Expand to show TLE details & history

TLE from 3 weeks ago
0 IUS DEB
1 26076U 99040E   25161.89949750  .00002030  00000-0  49899-3 0  9996
2 26076  28.4308  31.0959 4341019 166.1054 211.3335  6.69019476502755
Epoch: 2025-06-10T21:35Z
TLE epoch observation values (Epoch: 2025-06-10T21:35:16.584Z)
Latitude
0.00002°
Longitude
167.7871°
Altitude
10,305.353 km
Speed
3.78 km/s
True Right ascension
02h 04m 23s
True Declination
0° 00' 00"
Sunlit
Object was in daylight at epoch
Visualization orbit readout
Latitude
-24.17086°
Longitude
80.81173°
Altitude
2,854.364 km
Speed
7.272 km/s
Apparent Right ascension
19h 20m 45s
Apparent Declination
-31° 47' 57"
Sunlit
Object is in full shadow
Visualization observer readout
Local Sidereal Time
05:42:53
Azimuth
284.681° WNW
Elevation
-68.661°
Doppler factor
1
Orbital elements
Apogee altitude
10,688.382 km
Perigee altitude
356.329 km
Semi-major axis
11,900.492 km
Eccentricity
0.4341
Inclination
28.4308°
RAAN
31.0959°
Arg. of periapsis
166.1054°
True anomaly
Unknown
Mean anomaly
211.3335°
Eccentric anomaly
Unknown
Mean motion
1.67184 °/min
Orbital period
215.33 mins
BSTAR
0.00049899
Loading maneuver chart data...
Loading SW <> Apogee altitude chart data...
Loading historical data...
Loading historical data...
Loading historical data...
Loading historical data...
Loading historical data...
Loading historical data...
Loading historical data...

IUS DEB Visibility forecast

Observer location: undefined°, undefined°

Span
Click to sort rows by Start time (UTC) header in descending order
Start Az.
Max El. time (UTC)
Max El. Az.
Max El.
End time (UTC)
End Az.
72 mins2025-07-01 19:46:11.058Z272.037° WNW2025-07-01 20:44:11.058Z213.663° SW38.469°2025-07-01 20:58:11.058Z139.231° SSE
123 mins2025-07-02 12:23:11.058Z201.3° SSW2025-07-02 13:26:11.058Z139.152° SSE36.968°2025-07-02 14:26:11.058Z83.407° E
95 mins2025-07-02 16:28:11.058Z248.48° W2025-07-02 17:54:11.058Z184.663° SSW43°2025-07-02 18:03:11.058Z144.242° SSE
|